TimeMST,TemperatureF,Dew PointF,Humidity,Sea Level PressureIn,VisibilityMPH,Wind Direction,Wind SpeedMPH,Gust SpeedMPH,PrecipitationIn,Events,Conditions,WindDirDegrees,DateUTC
12:57 AM,62.1,39.0,43,29.94,10.0,Calm,Calm,-,N/A,,Clear,0,2013-10-11 07:57:00
1:57 AM,60.1,39.9,47,29.95,10.0,Calm,Calm,-,N/A,,Clear,0,2013-10-11 08:57:00
2:57 AM,61.0,37.9,42,29.94,10.0,Calm,Calm,-,N/A,,Clear,0,2013-10-11 09:57:00
3:57 AM,57.9,39.0,49,29.95,10.0,Calm,Calm,-,N/A,,Clear,0,2013-10-11 10:57:00
4:57 AM,61.0,36.0,39,29.95,10.0,NE,3.5,-,N/A,,Clear,40,2013-10-11 11:57:00
5:57 AM,57.9,37.0,46,29.96,10.0,North,3.5,-,N/A,,Clear,10,2013-10-11 12:57:00
6:57 AM,57.9,37.9,47,29.97,10.0,NE,5.8,-,N/A,,Clear,40,2013-10-11 13:57:00
7:57 AM,63.0,37.0,38,29.99,10.0,NNE,3.5,-,N/A,,Clear,30,2013-10-11 14:57:00
8:57 AM,66.9,37.0,33,30.01,10.0,NNE,4.6,-,N/A,,Clear,30,2013-10-11 15:57:00
9:57 AM,71.6,37.4,29,30.01,10.0,NE,5.8,-,N/A,,Partly Cloudy,50,2013-10-11 16:57:00
10:57 AM,77.0,34.0,21,30.00,10.0,ENE,4.6,-,N/A,,Clear,60,2013-10-11 17:57:00
11:57 AM,78.1,30.9,18,29.98,10.0,NNW,3.5,-,N/A,,Clear,340,2013-10-11 18:57:00
12:57 PM,81.0,33.1,18,29.96,10.0,North,5.8,-,N/A,,Clear,350,2013-10-11 19:57:00
1:57 PM,81.0,32.0,17,29.93,10.0,NE,3.5,-,N/A,,Clear,40,2013-10-11 20:57:00
2:57 PM,82.0,32.0,16,29.91,10.0,Variable,4.6,-,N/A,,Clear,0,2013-10-11 21:57:00
3:57 PM,82.0,30.9,16,29.90,10.0,Calm,Calm,-,N/A,,Clear,0,2013-10-11 22:57:00
4:57 PM,82.0,32.0,16,29.88,10.0,North,6.9,-,N/A,,Clear,350,2013-10-11 23:57:00
5:57 PM,80.1,32.0,17,29.87,10.0,NW,5.8,-,N/A,,Clear,320,2013-10-12 00:57:00
6:57 PM,77.0,36.0,23,29.87,10.0,West,4.6,-,N/A,,Clear,260,2013-10-12 01:57:00
7:57 PM,73.9,37.0,26,29.88,10.0,WNW,6.9,-,N/A,,Clear,300,2013-10-12 02:57:00
8:57 PM,72.0,37.9,29,29.89,10.0,WNW,5.8,-,N/A,,Clear,300,2013-10-12 03:57:00
9:57 PM,70.0,39.0,32,29.90,10.0,West,5.8,-,N/A,,Clear,280,2013-10-12 04:57:00
10:57 PM,68.0,39.0,35,29.90,10.0,WSW,3.5,-,N/A,,Clear,250,2013-10-12 05:57:00
11:57 PM,66.0,39.9,38,29.89,10.0,West,3.5,-,N/A,,Clear,270,2013-10-12 06:57:00